This demonstration page uses our WeatherBlox Daily Observations layout. Learn more.

Left ArrowRight Arrow

39.01783, -85.05884

Hourly Observations for April 30, 2019

Temp ( °F °C ) Dew Point ( °F °C ) Humidity (%) Winds ( mph kmh ) Pressure ( in mb ) Visibility ( mi km ) Precip ( " mm )
12:52 am 00:52 Cloudy 61 16.1 54 12.2 78 78 N 9 15 30.11 1020 10 16 N/A
1:52 am 01:52 Cloudy 58 14.4 53 11.7 84 84 N 6 9 30.13 1020 10 16 N/A
2:52 am 02:52 Cloudy 58 14.4 51 10.6 78 78 NNE 12 19 30.11 1020 10 16 N/A
3:52 am 03:52 Mostly Cloudy 56 13.3 50 10 81 81 NE 8 13 30.12 1020 10 16 N/A
4:52 am 04:52 Mostly Cloudy 55 12.8 50 10 83 83 NE 7 11 30.13 1020 9 14 N/A
5:30 am 05:30 Cloudy 55 12.8 50 10 83 83 ENE 6 9 30.16 1021 8 13 N/A
5:52 am 05:52 Cloudy 55 12.8 50 10 83 83 ENE 8 13 30.15 1021 8 13 N/A
6:45 am 06:45 Cloudy 55 12.8 50 10 83 83 ENE 7 11 30.18 1022 7 11 N/A
6:52 am 06:52 Cloudy with Haze 55 12.8 50 10 83 83 ENE 9 15 30.16 1021 6 10 N/A
7:10 am 07:10 Cloudy with Haze 56 13.3 50 10 81 81 ENE 7 11 30.18 1022 6 10 N/A
7:52 am 07:52 Cloudy 56 13.3 51 10.6 84 84 ENE 10 17 30.18 1022 7 11 N/A
8:52 am 08:52 Cloudy 57 13.9 52 11.1 83 83 E 8 13 30.17 1022 7 11 N/A
9:21 am 09:21 Cloudy 58 14.4 52 11.1 81 81 E 8 13 30.18 1022 8 13 N/A
9:52 am 09:52 Cloudy 59 15 52 11.1 78 78 E 8 13 30.17 1022 9 14 N/A
10:52 am 10:52 Cloudy 60 15.6 53 11.7 78 78 NE 7 11 30.18 1022 9 14 N/A
11:52 am 11:52 Mostly Cloudy 64 17.8 55 12.8 73 73 SE 5 7 30.18 1022 10 16 N/A
1:52 pm 13:52 Mostly Cloudy 71 21.7 57 13.9 61 61 ENE 7 11 30.16 1021 10 16 N/A
2:52 pm 14:52 Cloudy 71 21.7 57 13.9 61 61 ENE 10 17 30.15 1021 10 16 N/A
3:52 pm 15:52 Mostly Cloudy 71 21.7 58 14.4 63 63 ENE 8 13 30.13 1020 10 16 N/A
4:52 pm 16:52 Mostly Cloudy 75 23.9 60 15.6 60 60 ENE 9 15 30.10 1019 10 16 N/A
5:52 pm 17:52 Mostly Cloudy 75 23.9 60 15.6 60 60 NE 12 19 30.07 1018 10 16 N/A
6:52 pm 18:52 Mostly Cloudy 74 23.3 62 16.7 67 67 E 9 15 30.06 1018 10 16 N/A
7:52 pm 19:52 Cloudy 73 22.8 62 16.7 69 69 E 8 13 30.06 1018 10 16 N/A
8:52 pm 20:52 Cloudy 71 21.7 62 16.7 73 73 ESE 9 15 30.05 1018 10 16 N/A
9:52 pm 21:52 Mostly Cloudy 69 20.6 59 15 70 70 SSE 9 15 30.05 1018 10 16 N/A
10:52 pm 22:52 Mostly Cloudy 71 21.7 59 15 66 66 SSE 10 17 30.04 1017 10 16 N/A
11:52 pm 23:52 Mostly Cloudy 67 19.4 58 14.4 73 73 SSE 7 11 30.02 1017 10 16 N/A

Powered by AerisWeather